| time (UTC) | temp C | wind direction | speed KPH | gust KPH | rain 1hr cm | rain 24hr cm | rain mn cm | humidity % | barometer mb |
| 20260504150803 | 13 | 115 | 3.2 | 8.0 | 0.00 | 0.00 | 0.00 | 38 | 926.0 |
| 20260504150259 | 13 | 89 | 1.6 | 8.0 | 0.00 | 0.00 | 0.00 | 38 | 925.9 |
| 20260504141229 | 8 | 106 | 4.8 | 4.8 | 0.00 | 0.00 | 0.00 | 54 | 926.3 |
| 20260504140725 | 7 | 89 | 3.2 | 3.2 | 0.00 | 0.00 | 0.00 | 55 | 926.2 |
| 20260504140220 | 6 | 94 | 3.2 | 4.8 | 0.00 | 0.00 | 0.00 | 58 | 926.3 |
| 20260504130650 | 3 | 113 | 4.8 | 8.0 | 0.00 | 0.00 | 0.00 | 66 | 925.9 |
| 20260504130146 | 2 | 98 | 4.8 | 4.8 | 0.00 | 0.00 | 0.00 | 67 | 925.7 |
| 20260504120110 | 1 | 61 | 0.0 | 1.6 | 0.00 | 0.00 | 0.00 | 71 | 925.4 |
| 20260504110537 | 2 | 119 | 0.0 | 4.8 | 0.00 | 0.00 | 0.00 | 69 | 925.4 |
| 20260504100459 | 2 | 105 | 4.8 | 8.0 | 0.00 | 0.00 | 0.00 | 67 | 925.4 |
| 20260504081852 | 5 | 148 | 4.8 | 8.0 | 0.00 | 0.00 | 0.00 | 57 | 926.1 |
| 20260504081349 | 5 | 166 | 8.0 | 11.3 | 0.00 | 0.00 | 0.00 | 58 | 926.2 |
| 20260504080844 | 5 | 123 | 6.4 | 11.3 | 0.00 | 0.00 | 0.00 | 58 | 926.3 |
| 20260504080342 | 5 | 131 | 6.4 | 8.0 | 0.00 | 0.00 | 0.00 | 59 | 926.3 |
| 20260504070309 | 6 | 114 | 4.8 | 8.0 | 0.00 | 0.00 | 0.00 | 57 | 926.5 |
| 20260504060230 | 6 | 146 | 8.0 | 11.3 | 0.00 | 0.00 | 0.00 | 57 | 926.8 |
| 20260504050657 | 6 | 124 | 4.8 | 8.0 | 0.00 | 0.00 | 0.00 | 53 | 926.8 |
| 20260504050154 | 7 | 127 | 6.4 | 8.0 | 0.00 | 0.00 | 0.00 | 51 | 927.0 |
| 20260504045652 | 7 | 124 | 8.0 | 9.7 | 0.00 | 0.00 | 0.00 | 51 | 926.7 |
| 20260504045151 | 7 | 124 | 6.4 | 11.3 | 0.00 | 0.00 | 0.00 | 50 | 926.9 |
| 20260504044649 | 7 | 132 | 8.0 | 12.9 | 0.00 | 0.00 | 0.00 | 49 | 926.9 |
| 20260504044146 | 7 | 133 | 8.0 | 11.3 | 0.00 | 0.00 | 0.00 | 49 | 927.0 |
| 20260504043643 | 7 | 138 | 9.7 | 11.3 | 0.00 | 0.00 | 0.00 | 47 | 927.0 |
| 20260504043140 | 7 | 128 | 9.7 | 12.9 | 0.00 | 0.00 | 0.00 | 47 | 927.1 |
| 20260504042638 | 8 | 138 | 4.8 | 4.8 | 0.00 | 0.00 | 0.00 | 46 | 927.2 |
| 20260504042134 | 8 | 125 | 3.2 | 4.8 | 0.00 | 0.00 | 0.00 | 46 | 927.1 |
| 20260504041630 | 8 | 125 | 3.2 | 8.0 | 0.00 | 0.00 | 0.00 | 44 | 926.8 |
| 20260504041126 | 8 | 132 | 0.0 | 0.0 | 0.00 | 0.00 | 0.00 | 44 | 926.9 |
| 20260504040624 | 8 | 118 | 0.0 | 0.0 | 0.00 | 0.00 | 0.00 | 43 | 926.7 |
| 20260504040120 | 9 | 137 | 0.0 | 0.0 | 0.00 | 0.00 | 0.00 | 43 | 926.8 |
| 20260504035617 | 9 | 100 | 0.0 | 0.0 | 0.00 | 0.00 | 0.00 | 43 | 926.8 |
| 20260504035114 | 9 | 108 | 0.0 | 0.0 | 0.00 | 0.00 | 0.00 | 44 | 926.9 |
| 20260504034612 | 10 | 103 | 0.0 | 0.0 | 0.00 | 0.00 | 0.00 | 44 | 926.8 |
| 20260504034108 | 10 | 123 | 0.0 | 0.0 | 0.00 | 0.00 | 0.00 | 43 | 926.9 |
| 20260504033606 | 10 | 74 | 0.0 | 0.0 | 0.00 | 0.00 | 0.00 | 41 | 926.8 |
| 20260504033103 | 11 | 74 | 0.0 | 0.0 | 0.00 | 0.00 | 0.00 | 39 | 926.7 |
| 20260504032600 | 11 | 76 | 0.0 | 0.0 | 0.00 | 0.00 | 0.00 | 38 | 926.5 |
| 20260504032057 | 11 | 70 | 0.0 | 0.0 | 0.00 | 0.00 | 0.00 | 35 | 926.7 |
| 20260504031554 | 12 | 82 | 0.0 | 0.0 | 0.00 | 0.00 | 0.00 | 34 | 926.7 |
| 20260504031050 | 12 | 83 | 0.0 | 0.0 | 0.00 | 0.00 | 0.00 | 33 | 926.5 |
| 20260504030548 | 12 | 104 | 0.0 | 0.0 | 0.00 | 0.00 | 0.00 | 32 | 926.3 |
| 20260504030043 | 11 | 80 | 0.0 | 0.0 | 0.00 | 0.00 | 0.00 | 35 | 926.3 |
| 20260504025541 | 12 | 100 | 0.0 | 0.0 | 0.00 | 0.00 | 0.00 | 34 | 926.4 |
| 20260504025037 | 13 | 88 | 4.8 | 8.0 | 0.00 | 0.00 | 0.00 | 34 | 926.3 |
| 20260504024535 | 13 | 43 | 0.0 | 0.0 | 0.00 | 0.00 | 0.00 | 33 | 926.4 |
| 20260504024031 | 13 | 41 | 0.0 | 0.0 | 0.00 | 0.00 | 0.00 | 31 | 926.4 |
| 20260504023528 | 14 | 11 | 0.0 | 0.0 | 0.00 | 0.00 | 0.00 | 31 | 926.4 |
| 20260504023024 | 15 | 20 | 0.0 | 0.0 | 0.00 | 0.00 | 0.00 | 30 | 926.1 |
| 20260504022520 | 15 | 17 | 0.0 | 0.0 | 0.00 | 0.00 | 0.00 | 29 | 926.3 |
| 20260504022017 | 15 | 22 | 0.0 | 0.0 | 0.00 | 0.00 | 0.00 | 28 | 926.3 |
| 20260504021514 | 15 | 18 | 0.0 | 0.0 | 0.00 | 0.00 | 0.00 | 27 | 926.3 |
| 20260504021011 | 16 | 16 | 0.0 | 0.0 | 0.00 | 0.00 | 0.00 | 26 | 926.4 |
| 20260504020508 | 16 | 9 | 1.6 | 3.2 | 0.00 | 0.00 | 0.00 | 25 | 926.2 |
| 20260504020004 | 16 | 4 | 0.0 | 0.0 | 0.00 | 0.00 | 0.00 | 26 | 926.3 |
| 20260504015500 | 16 | 25 | 0.0 | 0.0 | 0.00 | 0.00 | 0.00 | 24 | 926.4 |
| 20260504014956 | 16 | 28 | 0.0 | 0.0 | 0.00 | 0.00 | 0.00 | 24 | 926.7 |
| 20260504014452 | 17 | 14 | 0.0 | 0.0 | 0.00 | 0.00 | 0.00 | 24 | 926.5 |
| 20260504013950 | 17 | 16 | 0.0 | 0.0 | 0.00 | 0.00 | 0.00 | 23 | 926.8 |
| 20260504013448 | 17 | 342 | 0.0 | 0.0 | 0.00 | 0.00 | 0.00 | 23 | 926.8 |
| 20260504012944 | 17 | 0 | 0.0 | 0.0 | 0.00 | 0.00 | 0.00 | 23 | 926.9 |
| 20260504012442 | 17 | 304 | 3.2 | 4.8 | 0.00 | 0.00 | 0.00 | 21 | 926.9 |
| 20260504011940 | 18 | 301 | 4.8 | 12.9 | 0.00 | 0.00 | 0.00 | 21 | 926.9 |
| 20260504011436 | 18 | 328 | 1.6 | 4.8 | 0.00 | 0.00 | 0.00 | 20 | 927.2 |
| 20260504010932 | 18 | 7 | 0.0 | 1.6 | 0.00 | 0.00 | 0.00 | 21 | 927.1 |
| 20260504010428 | 18 | 4 | 0.0 | 1.6 | 0.00 | 0.00 | 0.00 | 21 | 927.2 |
| 20260504005924 | 18 | 340 | 0.0 | 9.7 | 0.00 | 0.00 | 0.00 | 21 | 927.2 |
| 20260504005421 | 18 | 318 | 3.2 | 9.7 | 0.00 | 0.00 | 0.00 | 21 | 927.2 |
| 20260504004919 | 18 | 327 | 8.0 | 11.3 | 0.00 | 0.00 | 0.00 | 20 | 927.1 |
| 20260504004416 | 18 | 323 | 1.6 | 3.2 | 0.00 | 0.00 | 0.00 | 20 | 927.2 |
| 20260504003913 | 18 | 306 | 3.2 | 14.5 | 0.00 | 0.00 | 0.00 | 20 | 927.1 |
| 20260504003409 | 18 | 312 | 4.8 | 17.7 | 0.00 | 0.00 | 0.00 | 19 | 927.1 |
| 20260504002906 | 18 | 321 | 4.8 | 22.5 | 0.00 | 0.00 | 0.00 | 20 | 927.2 |
| 20260504002403 | 18 | 350 | 9.7 | 14.5 | 0.00 | 0.00 | 0.00 | 20 | 927.3 |
| 20260504001900 | 19 | 305 | 4.8 | 11.3 | 0.00 | 0.00 | 0.00 | 19 | 927.6 |
| 20260504001358 | 19 | 308 | 8.0 | 16.1 | 0.00 | 0.00 | 0.00 | 19 | 927.7 |
| 20260504000854 | 20 | 322 | 11.3 | 12.9 | 0.00 | 0.00 | 0.00 | 19 | 927.8 |
| 20260504000353 | 20 | 306 | 14.5 | 24.1 | 0.00 | 0.00 | 0.00 | 18 | 927.7 |
| 20260503235849 | 20 | 329 | 12.9 | 24.1 | 0.00 | 0.00 | 0.00 | 18 | 927.6 |
| 20260503235347 | 19 | 319 | 14.5 | 20.9 | 0.00 | 0.00 | 0.00 | 20 | 927.5 |
| 20260503234844 | 19 | 260 | 6.4 | 14.5 | 0.00 | 0.00 | 0.00 | 20 | 927.7 |
| 20260503234341 | 20 | 261 | 4.8 | 17.7 | 0.00 | 0.00 | 0.00 | 19 | 927.7 |
| 20260503233839 | 20 | 353 | 14.5 | 17.7 | 0.00 | 0.00 | 0.00 | 19 | 927.7 |
| 20260503233335 | 20 | 307 | 3.2 | 22.5 | 0.00 | 0.00 | 0.00 | 20 | 927.7 |
| 20260503232831 | 20 | 321 | 8.0 | 17.7 | 0.00 | 0.00 | 0.00 | 20 | 927.5 |
| 20260503232329 | 19 | 270 | 8.0 | 11.3 | 0.00 | 0.00 | 0.00 | 19 | 927.3 |
| 20260503231827 | 20 | 318 | 8.0 | 16.1 | 0.00 | 0.00 | 0.00 | 20 | 927.7 |
| 20260503231323 | 20 | 322 | 12.9 | 20.9 | 0.00 | 0.00 | 0.00 | 19 | 927.1 |
| 20260503230819 | 19 | 314 | 0.0 | 9.7 | 0.00 | 0.00 | 0.00 | 19 | 927.3 |
| 20260503230316 | 19 | 359 | 0.0 | 8.0 | 0.00 | 0.00 | 0.00 | 19 | 927.5 |
| 20260503225814 | 19 | 357 | 1.6 | 9.7 | 0.00 | 0.00 | 0.00 | 19 | 927.6 |
| 20260503225309 | 20 | 356 | 9.7 | 24.1 | 0.00 | 0.00 | 0.00 | 18 | 927.6 |
| 20260503224806 | 20 | 353 | 4.8 | 9.7 | 0.00 | 0.00 | 0.00 | 17 | 927.6 |
| 20260503224304 | 20 | 325 | 14.5 | 27.4 | 0.00 | 0.00 | 0.00 | 17 | 927.6 |
| 20260503223801 | 20 | 272 | 8.0 | 20.9 | 0.00 | 0.00 | 0.00 | 17 | 927.7 |
| 20260503223259 | 20 | 298 | 9.7 | 14.5 | 0.00 | 0.00 | 0.00 | 17 | 927.7 |
| 20260503222755 | 20 | 258 | 8.0 | 12.9 | 0.00 | 0.00 | 0.00 | 17 | 927.7 |
| 20260503222253 | 20 | 262 | 6.4 | 14.5 | 0.00 | 0.00 | 0.00 | 17 | 927.8 |
| 20260503221751 | 20 | 282 | 0.0 | 16.1 | 0.00 | 0.00 | 0.00 | 18 | 927.8 |
| 20260503221249 | 21 | 316 | 0.0 | 8.0 | 0.00 | 0.00 | 0.00 | 17 | 927.8 |
| 20260503220745 | 20 | 2 | 1.6 | 14.5 | 0.00 | 0.00 | 0.00 | 18 | 928.1 |
| 20260503220242 | 20 | 332 | 9.7 | 24.1 | 0.00 | 0.00 | 0.00 | 18 | 928.1 |
| 20260503215738 | 20 | 297 | 12.9 | 16.1 | 0.00 | 0.00 | 0.00 | 17 | 928.1 |
| 20260503215236 | 20 | 338 | 8.0 | 22.5 | 0.00 | 0.00 | 0.00 | 17 | 928.1 |
| 20260503214734 | 20 | 263 | 0.0 | 14.5 | 0.00 | 0.00 | 0.00 | 18 | 928.5 |
| 20260503214230 | 19 | 283 | 9.7 | 12.9 | 0.00 | 0.00 | 0.00 | 17 | 928.1 |
| 20260503213728 | 20 | 304 | 4.8 | 16.1 | 0.00 | 0.00 | 0.00 | 17 | 928.4 |
| 20260503213225 | 20 | 303 | 0.0 | 9.7 | 0.00 | 0.00 | 0.00 | 17 | 928.4 |
| 20260503212722 | 20 | 321 | 9.7 | 22.5 | 0.00 | 0.00 | 0.00 | 17 | 928.6 |
| 20260503212220 | 20 | 59 | 1.6 | 8.0 | 0.00 | 0.00 | 0.00 | 18 | 928.4 |
| 20260503211717 | 20 | 339 | 9.7 | 14.5 | 0.00 | 0.00 | 0.00 | 19 | 928.7 |
| 20260503211213 | 20 | 325 | 8.0 | 16.1 | 0.00 | 0.00 | 0.00 | 17 | 928.8 |
| 20260503210709 | 20 | 231 | 6.4 | 9.7 | 0.00 | 0.00 | 0.00 | 18 | 928.9 |
| 20260503210206 | 20 | 275 | 8.0 | 20.9 | 0.00 | 0.00 | 0.00 | 18 | 928.8 |
| 20260503205701 | 19 | 112 | 4.8 | 14.5 | 0.00 | 0.00 | 0.00 | 18 | 928.7 |
| 20260503205158 | 20 | 182 | 8.0 | 11.3 | 0.00 | 0.00 | 0.00 | 18 | 929.1 |
| 20260503204654 | 20 | 64 | 0.0 | 3.2 | 0.00 | 0.00 | 0.00 | 16 | 928.7 |
| 20260503204152 | 19 | 248 | 6.4 | 8.0 | 0.00 | 0.00 | 0.00 | 17 | 929.1 |
| 20260503203649 | 20 | 243 | 8.0 | 14.5 | 0.00 | 0.00 | 0.00 | 18 | 929.2 |
| 20260503203147 | 19 | 294 | 11.3 | 14.5 | 0.00 | 0.00 | 0.00 | 19 | 928.7 |
| 20260503202644 | 20 | 26 | 14.5 | 24.1 | 0.00 | 0.00 | 0.00 | 18 | 929.1 |
| 20260503202142 | 20 | 203 | 9.7 | 12.9 | 0.00 | 0.00 | 0.00 | 18 | 929.2 |
| 20260503201640 | 20 | 7 | 0.0 | 1.6 | 0.00 | 0.00 | 0.00 | 17 | 929.2 |
| 20260503201137 | 20 | 225 | 1.6 | 8.0 | 0.00 | 0.00 | 0.00 | 16 | 929.4 |
| 20260503200633 | 20 | 57 | 0.0 | 3.2 | 0.00 | 0.00 | 0.00 | 17 | 929.4 |
| 20260503200129 | 20 | 207 | 11.3 | 17.7 | 0.00 | 0.00 | 0.00 | 18 | 929.3 |
| 20260503195627 | 20 | 133 | 0.0 | 1.6 | 0.00 | 0.00 | 0.00 | 19 | 929.4 |
| 20260503195123 | 20 | 98 | 1.6 | 4.8 | 0.00 | 0.00 | 0.00 | 18 | 929.6 |
| 20260503194621 | 20 | 91 | 0.0 | 3.2 | 0.00 | 0.00 | 0.00 | 18 | 929.5 |
| 20260503194116 | 20 | 68 | 0.0 | 3.2 | 0.00 | 0.00 | 0.00 | 18 | 929.5 |
| 20260503193613 | 19 | 29 | 0.0 | 0.0 | 0.00 | 0.00 | 0.00 | 19 | 929.7 |
| 20260503193108 | 18 | 32 | 0.0 | 9.7 | 0.00 | 0.00 | 0.00 | 18 | 929.7 |
| 20260503192604 | 18 | 112 | 6.4 | 9.7 | 0.00 | 0.00 | 0.00 | 21 | 929.9 |
| 20260503192100 | 18 | 101 | 0.0 | 4.8 | 0.00 | 0.00 | 0.00 | 19 | 930.0 |
| 20260503191557 | 18 | 82 | 0.0 | 1.6 | 0.00 | 0.00 | 0.00 | 19 | 929.9 |
| 20260503191054 | 18 | 75 | 0.0 | 0.0 | 0.00 | 0.00 | 0.00 | 18 | 929.9 |
| 20260503190551 | 18 | 245 | 0.0 | 0.0 | 0.00 | 0.00 | 0.00 | 18 | 929.9 |
| 20260503190048 | 17 | 41 | 0.0 | 0.0 | 0.00 | 0.00 | 0.00 | 18 | 930.2 |
| 20260503185544 | 17 | 54 | 0.0 | 0.0 | 0.00 | 0.00 | 0.00 | 18 | 930.3 |
| 20260503185044 | 17 | 34 | 0.0 | 4.8 | 0.00 | 0.00 | 0.00 | 19 | 930.4 |
| 20260503184540 | 17 | 358 | 0.0 | 3.2 | 0.00 | 0.00 | 0.00 | 19 | 930.1 |
| 20260503184037 | 17 | 51 | 3.2 | 4.8 | 0.00 | 0.00 | 0.00 | 19 | 930.3 |
| 20260503183533 | 18 | 81 | 0.0 | 0.0 | 0.00 | 0.00 | 0.00 | 18 | 930.4 |
| 20260503183031 | 18 | 40 | 0.0 | 0.0 | 0.00 | 0.00 | 0.00 | 17 | 930.5 |
| 20260503182529 | 18 | 12 | 0.0 | 11.3 | 0.00 | 0.00 | 0.00 | 17 | 930.7 |
| 20260503182026 | 18 | 268 | 4.8 | 4.8 | 0.00 | 0.00 | 0.00 | 17 | 930.5 |
| 20260503181523 | 18 | 56 | 0.0 | 9.7 | 0.00 | 0.00 | 0.00 | 17 | 930.7 |
| 20260503181019 | 20 | 17 | 9.7 | 12.9 | 0.00 | 0.00 | 0.00 | 17 | 930.7 |
| 20260503180517 | 19 | 47 | 0.0 | 8.0 | 0.00 | 0.00 | 0.00 | 18 | 930.8 |
| 20260503180014 | 18 | 127 | 0.0 | 4.8 | 0.00 | 0.00 | 0.00 | 21 | 930.7 |
| 20260503175512 | 18 | 305 | 11.3 | 12.9 | 0.00 | 0.00 | 0.00 | 18 | 930.8 |
| 20260503175008 | 18 | 91 | 0.0 | 4.8 | 0.00 | 0.00 | 0.00 | 18 | 930.8 |
| 20260503174506 | 18 | 28 | 0.0 | 8.0 | 0.00 | 0.00 | 0.00 | 20 | 931.0 |
| 20260503174001 | 18 | 326 | 12.9 | 14.5 | 0.00 | 0.00 | 0.00 | 20 | 931.0 |
| 20260503173457 | 18 | 4 | 4.8 | 9.7 | 0.00 | 0.00 | 0.00 | 19 | 931.1 |
| 20260503172954 | 18 | 91 | 4.8 | 4.8 | 0.00 | 0.00 | 0.00 | 19 | 931.1 |
| 20260503172451 | 17 | 68 | 3.2 | 11.3 | 0.00 | 0.00 | 0.00 | 19 | 931.3 |
| 20260503171948 | 18 | 88 | 4.8 | 8.0 | 0.00 | 0.00 | 0.00 | 20 | 931.1 |
| 20260503171444 | 19 | 67 | 0.0 | 1.6 | 0.00 | 0.00 | 0.00 | 20 | 931.2 |
| 20260503170942 | 19 | 243 | 0.0 | 9.7 | 0.00 | 0.00 | 0.00 | 18 | 931.2 |
| 20260503170438 | 18 | 33 | 3.2 | 4.8 | 0.00 | 0.00 | 0.00 | 20 | 931.1 |